Pensacola, FL

12:16 PM CST on November 20, 2017 (GMT -0600)
Pensacola Regional

Weather History for KPNS - February, 2012

Change the Weather History Date:

Friday, February 24, 2012

  Actual Average Record
Temperature  
Mean Temperature 68 °F 56 °F  
Max Temperature 81 °F 66 °F 81 °F (1996)
Min Temperature 54 °F 47 °F 23 °F (1989)
Degree Days  
Heating Degree Days 0 9  
Month to date heating degree days 154 264  
Since 1 July heating degree days 849 1275  
Cooling Degree Days 3 0  
Month to date cooling degree days 17 0  
Year to date cooling degree days 48 6  
Growing Degree Days 17 (Base 50)    
Moisture  
Dew Point 50 °F    
Average Humidity 64    
Maximum Humidity 97    
Minimum Humidity 30    
Precipitation  
Precipitation 0.01 in 0.19 in 2.46 in (1912)
Month to date precipitation 5.68 4.33  
Year to date precipitation 8.17 8.96  
Snow  
Snow 0.00 in 0.00 in - ()
Month to date snowfall 0.0 0.0  
Since 1 July snowfall 0.0 0.0  
Snow Depth 0.00 in    
Sea Level Pressure  
Sea Level Pressure 29.94 in    
Wind  
Wind Speed 16 mph (WNW)    
Max Wind Speed 36 mph    
Max Gust Speed 45 mph    
Visibility 9 miles    
Events      
T = Trace of Precipitation, MM = Missing Value Source: NWS Daily Summary

Daily Weather History Graph

Daily Weather History Graph

Search for Another Location

Airport or City:

Trip Planner

Search our weather history database for the weather conditions in past years. The results will help you decide how hot, cold, wet, or windy it might be!

Date:

Astronomy

Feb. 24, 2012 Rise Set
Actual Time 6:20 AM CST 5:43 PM CST
Civil Twilight 5:56 AM CST 6:07 PM CST
Nautical Twilight 5:28 AM CST 6:35 PM CST
Astronomical Twilight 5:00 AM CST 7:03 PM CST
Moon 7:31 AM CST (2/24) 8:28 PM CST (2/24)
Length of Visible Light 12h 11m
Length of Day
11h 22m
Waxing Crescent, 8% of the Moon is Illuminated
Feb 24
Waxing Crescent
Feb 29
First Quarter
Mar 8
Full
Mar 14
Last Quarter
Mar 22
New

Hourly Weather History & Observations

Time (CST) Temp. Dew Point Humidity Pressure Visibility Wind Dir Wind Speed Gust Speed Precip Events Conditions
12:53 AM 70.0 °F 66.9 °F 90% 29.79 in 7.0 mi SSW 18.4 mph 26.5 mph N/A   Overcast
1:34 AM 69.8 °F 66.2 °F 88% 29.78 in 4.0 mi SW 19.6 mph 26.5 mph N/A   Overcast
1:53 AM 69.1 °F 68.0 °F 96% 29.79 in 4.0 mi SW 16.1 mph 26.5 mph N/A   Overcast
2:41 AM 69.8 °F 68.0 °F 94% 29.77 in 6.0 mi SW 17.3 mph 28.8 mph N/A   Overcast
2:53 AM 70.0 °F 66.9 °F 90% 29.77 in 6.0 mi SSW 18.4 mph 26.5 mph N/A   Overcast
3:53 AM 70.0 °F 66.9 °F 90% 29.79 in 6.0 mi SW 16.1 mph 23.0 mph N/A   Overcast
4:53 AM 70.0 °F 66.9 °F 90% 29.81 in 7.0 mi SW 12.7 mph 24.2 mph N/A   Overcast
5:53 AM 70.0 °F 66.9 °F 90% 29.82 in 7.0 mi SW 17.3 mph - N/A   Overcast
6:53 AM 71.1 °F 68.0 °F 90% 29.86 in 7.0 mi WSW 11.5 mph - 0.01 in   Overcast
7:53 AM 72.0 °F 66.9 °F 84% 29.86 in 8.0 mi SW 13.8 mph 19.6 mph N/A   Scattered Clouds
8:53 AM 73.0 °F 68.0 °F 84% 29.87 in 8.0 mi SW 16.1 mph 21.9 mph N/A   Overcast
9:53 AM 75.0 °F 66.9 °F 76% 29.87 in 10.0 mi WSW 16.1 mph 21.9 mph N/A   Scattered Clouds
10:53 AM 79.0 °F 66.0 °F 64% 29.87 in 10.0 mi WSW 16.1 mph - N/A   Partly Cloudy
11:53 AM 68.0 °F 52.0 °F 56% 29.93 in 10.0 mi North 28.8 mph 44.9 mph N/A   Mostly Cloudy
12:00 PM 62.6 °F 44.6 °F 52% 29.93 in 10.0 mi NNW 29.9 mph 40.3 mph N/A   Mostly Cloudy
12:27 PM 60.8 °F 44.6 °F 55% 29.93 in 10.0 mi North 19.6 mph 27.6 mph 0.00 in   Overcast
12:53 PM 61.0 °F 43.0 °F 52% 29.94 in 10.0 mi NNW 21.9 mph 29.9 mph 0.00 in   Overcast
1:53 PM 62.1 °F 39.9 °F 44% 29.95 in 10.0 mi North 18.4 mph 25.3 mph N/A   Overcast
2:53 PM 62.1 °F 33.1 °F 34% 29.99 in 10.0 mi NNW 21.9 mph 28.8 mph N/A   Overcast
3:53 PM 59.0 °F 32.0 °F 36% 30.01 in 10.0 mi North 12.7 mph 26.5 mph 0.00 in   Overcast
4:53 PM 57.9 °F 32.0 °F 37% 30.04 in 10.0 mi North 13.8 mph 24.2 mph 0.00 in   Overcast
5:53 PM 57.9 °F 30.0 °F 35% 30.07 in 10.0 mi North 12.7 mph - N/A   Overcast
6:53 PM 57.0 °F 27.0 °F 32% 30.09 in 10.0 mi North 12.7 mph 23.0 mph N/A   Mostly Cloudy
7:53 PM 57.0 °F 28.0 °F 33% 30.11 in 10.0 mi North 9.2 mph - N/A   Mostly Cloudy
8:53 PM 55.9 °F 28.0 °F 34% 30.14 in 10.0 mi NNW 13.8 mph 19.6 mph N/A   Mostly Cloudy
9:53 PM 55.9 °F 28.9 °F 36% 30.17 in 10.0 mi NNW 11.5 mph - N/A   Overcast
10:53 PM 55.0 °F 27.0 °F 34% 30.19 in 10.0 mi North 11.5 mph 20.7 mph N/A   Overcast
11:53 PM 54.0 °F 25.0 °F 33% 30.23 in 10.0 mi NNW 19.6 mph 31.1 mph N/A   Overcast